User: anonymous
Location: Caltech
(34.1382°N, 118.1253°W)
Time: 14:35:54
(UTC-07:00)
Language:

Cosmos 1833 - Orbit

View from above orbital plane
View from above orbital plane
View from above satellite
View from above satellite

Ground track
Ground track

The orbit data is extracted from the following two-line orbital elements,

1 17589U 87027A   14260.22866294  .00000225  00000-0  14687-3 0  8061
2 17589 070.9118 134.4800 0009328 006.4326 132.8095 14.12808806418505
Epoch (UTC): 17 September 2014 05:29:16
Eccentricity: 0.0009328
inclination: 70.9118°
perigee height: 843 km
apogee height: 856 km
right ascension of ascending node: 134.4800°
argument of perigee: 6.4326°
revolutions per day: 14.12808806
mean anomaly at epoch: 132.8095°
orbit number at epoch: 41850

The dashed part of the orbit path shows where the satellite is in the earth's shadow,  

DLR